Wind_Speed
4 4 4 3 4 4 4 3 4 5 5 6 6 6 8 8 8 9 10 11 12 12 12 12 12 12 12 13 13 13 14 13 13 12 11 10 11 13 15 18 19 19
4 5 5 3 2 3 3 1 4 6 5 6 6 7 8 7 7 9 11 12 12 12 12 12 12 12 13 13 14 15 15 14 13 12 11 12 13 15 18 19 20 19
6 6 5 3 2 2 4 5 6 6 4 5 6 7 7 7 8 10 12 12 13 13 12 12 12 12 13 13 14 15 15 15 13 12 12 13 15 17 19 18 18 17
7 6 6 5 5 6 7 7 5 4 5 5 6 8 8 9 10 11 12 13 13 14 13 13 13 13 14 14 15 15 15 15 14 12 12 13 15 17 17 17 16 16
8 7 6 6 6 7 7 5 4 5 6 7 8 9 10 11 11 12 12 13 14 14 14 13 13 13 14 15 16 15 15 14 13 13 13 14 16 16 16 16 16 17
8 8 7 6 6 6 7 6 5 7 8 9 10 10 11 11 12 12 13 14 14 14 14 15 15 15 15 16 17 17 17 15 14 14 15 15 16 15 15 17 17 19
8 8 7 7 6 5 6 6 8 9 10 10 11 11 12 12 11 12 12 14 15 15 16 17 17 17 17 17 17 18 18 17 16 16 16 16 16 16 16 17 18 19
8 8 8 7 6 7 7 7 9 10 10 11 11 11 12 12 12 13 12 14 15 16 17 18 18 18 17 18 18 19 19 18 17 16 17 17 17 17 18 18 19 19
9 9 9 8 8 7 7 8 9 10 12 12 11 10 11 13 14 14 14 14 16 17 18 18 18 19 19 19 18 19 20 18 17 17 18 18 18 19 20 20 20 19
9 9 10 9 8 8 8 9 8 9 9 9 10 12 13 13 13 13 14 16 18 18 18 19 19 21 22 20 19 19 20 20 20 19 19 19 19 20 22 22 21 20
9 9 10 9 9 9 9 9 10 10 9 8 10 12 13 12 12 14 16 17 18 18 19 20 21 22 24 23 21 20 21 22 22 22 21 19 20 22 24 24 22 21
10 9 10 10 11 11 10 10 11 12 10 9 10 11 13 13 14 16 17 17 18 19 20 20 21 22 24 25 23 20 21 23 22 21 21 21 22 24 24 23 23 23
12 11 11 12 12 12 11 11 11 11 10 11 12 12 13 14 14 15 15 17 19 19 20 21 21 20 22 24 23 19 18 21 20 19 19 21 24 25 24 23 24 25
12 12 13 13 13 13 12 12 12 13 13 13 13 13 13 13 13 15 17 18 18 19 20 20 20 19 20 22 21 18 16 18 19 18 17 20 25 25 24 23 25 26
14 13 15 15 14 13 12 12 13 13 13 13 13 15 14 13 13 16 18 18 17 17 17 18 18 18 18 17 17 16 16 16 18 19 19 21 25 26 25 26 26 27
16 16 17 15 14 13 12 12 12 12 14 14 14 16 16 13 13 15 16 15 15 16 16 15 17 17 15 14 14 15 16 15 16 18 20 21 24 25 26 28 29 29
18 18 18 16 14 13 12 12 12 13 14 14 14 16 16 14 13 14 14 15 15 14 14 16 19 19 17 16 15 13 14 15 16 19 21 21 22 24 26 28 30 31
19 19 18 16 14 13 12 13 14 14 14 14 14 16 15 14 14 14 16 16 14 12 15 18 19 19 18 18 18 16 14 16 18 19 21 22 24 26 27 26 28 31
20 19 18 15 14 13 14 14 14 14 13 14 15 15 16 15 15 16 16 16 14 14 17 19 18 18 19 20 21 20 18 18 20 22 23 23 24 25 26 27 26 29
20 20 18 16 14 14 15 15 14 14 14 15 16 16 17 16 15 16 17 16 17 17 18 19 21 22 22 23 23 21 19 20 22 25 25 24 23 22 24 27 26 27
20 19 17 15 15 15 16 15 14 14 15 16 17 18 18 17 17 17 18 17 17 19 19 20 22 23 23 24 24 21 20 20 22 23 24 24 23 20 21 24 25 24
19 18 16 15 15 16 16 15 16 17 16 16 17 19 19 19 19 19 19 18 17 19 21 19 20 22 23 24 24 22 21 20 20 20 21 22 23 20 20 22 22 23
18 17 16 16 16 17 16 17 18 17 15 15 17 18 18 19 20 19 19 19 17 17 19 19 21 22 22 23 23 21 20 19 18 17 18 21 22 20 19 19 20 23
17 17 16 16 17 17 16 17 18 16 16 18 20 18 17 19 19 19 20 21 18 16 17 20 22 21 20 22 22 19 18 17 16 16 18 20 22 20 18 18 19 20
16 17 18 18 18 18 17 16 18 19 20 22 22 19 17 19 20 20 21 21 18 14 14 17 19 17 18 21 20 16 16 15 15 17 19 20 21 20 19 19 19 19
17 18 20 20 19 18 17 15 17 19 20 20 19 17 18 19 21 20 20 18 17 15 15 17 17 17 17 19 18 15 14 14 14 16 18 20 20 21 22 21 20 19
Wind_Direction
221 231 234 230 231 245 253 245 246 251 258 268 271 268 270 279 299 311 310 309 311 316 318 320 323 325 326 328 328 327 329 329 326 323 318 317 320 323 327 332 334 332
220 230 253 264 251 295 328 280 248 259 259 266 276 279 286 302 308 302 300 304 310 315 317 320 324 324 323 325 327 326 327 328 327 322 312 313 318 322 330 333 332 331
216 216 240 256 243 258 261 256 268 290 303 301 308 309 305 304 296 292 297 303 308 311 315 319 322 323 323 322 321 322 323 322 319 314 310 315 321 326 333 331 326 327
218 220 222 217 219 234 250 266 279 296 305 300 298 297 293 291 289 290 296 299 301 305 310 314 316 317 315 314 313 315 320 318 308 302 306 317 323 326 329 325 321 322
217 230 233 223 220 232 249 270 279 269 271 274 278 281 285 290 289 289 291 291 293 299 304 306 306 303 301 302 304 306 311 310 300 295 300 310 318 323 325 324 321 320
220 230 236 234 227 236 254 265 266 264 266 269 273 274 277 281 284 286 289 292 294 294 294 296 295 295 296 296 296 299 302 299 292 291 295 304 314 319 321 321 320 320
227 236 239 238 235 247 260 253 252 267 279 284 286 283 283 285 287 288 290 293 295 292 290 290 290 293 297 297 295 294 294 294 291 289 293 302 307 310 316 318 317 318
220 233 237 237 236 242 253 258 268 286 295 299 302 295 289 294 295 288 282 283 287 288 289 289 290 293 294 292 292 290 290 293 292 288 292 302 305 304 310 315 314 315
216 225 228 232 235 240 248 252 269 294 299 296 299 291 284 288 290 286 284 289 293 294 294 296 299 299 296 288 283 284 288 292 293 289 291 300 305 303 303 308 312 313
221 223 222 227 232 242 253 251 270 300 298 281 278 281 285 291 295 297 297 299 300 299 298 297 296 297 298 293 283 282 288 291 290 286 287 298 306 305 300 303 310 311
227 225 221 226 229 236 248 250 261 272 268 273 287 293 296 298 296 292 291 294 295 293 294 295 295 296 297 296 291 289 292 294 291 285 283 293 305 306 300 298 304 308
231 229 220 227 234 236 241 245 254 261 267 285 290 285 286 287 286 287 291 295 294 291 292 291 291 292 293 294 294 292 293 296 296 291 286 292 304 307 299 292 295 300
235 234 222 223 231 238 246 249 254 259 262 274 279 279 280 282 288 293 292 291 291 291 290 286 288 293 294 294 294 293 294 295 294 291 287 293 305 306 297 290 290 292
232 232 227 227 230 236 244 249 255 258 262 277 289 288 284 282 286 287 284 284 287 287 287 291 300 302 295 295 301 306 306 303 301 300 295 296 302 302 294 290 290 287
228 228 228 230 234 239 245 253 261 265 269 280 282 280 283 282 279 280 284 290 295 294 295 301 307 302 294 299 315 322 318 313 313 310 303 297 298 299 295 292 289 283
229 228 225 227 232 239 246 255 264 267 269 276 276 277 283 282 277 283 290 294 296 297 299 298 294 296 302 307 314 322 325 324 318 311 306 300 299 300 298 294 289 285
228 226 223 224 229 237 246 252 258 262 267 275 277 277 284 289 290 290 287 286 288 289 291 288 287 296 308 311 308 315 323 323 319 315 314 312 311 309 302 294 291 290
225 223 222 225 230 240 251 257 263 266 268 274 278 281 288 292 288 282 279 286 293 291 284 283 290 301 309 310 308 308 308 309 312 315 316 318 321 319 314 307 300 296
223 220 221 227 234 245 255 261 268 272 274 278 279 280 284 284 280 278 280 287 291 286 281 284 294 303 303 302 301 300 300 302 306 310 313 317 319 319 323 325 315 304
221 219 222 230 236 247 259 264 270 272 276 280 279 277 278 279 278 275 278 285 283 279 284 292 297 299 300 300 298 299 302 302 302 305 308 313 314 313 320 326 320 312
219 221 229 235 237 247 260 267 269 268 270 273 275 275 274 276 277 276 280 286 281 280 289 295 295 297 301 301 300 305 308 302 300 303 304 308 311 313 319 321 318 319
219 226 236 242 241 245 253 261 263 263 266 274 277 273 270 273 275 275 281 284 281 286 294 293 292 296 299 299 302 310 311 303 300 299 299 305 310 313 319 319 318 323
225 230 237 243 243 241 249 264 268 267 271 279 279 272 269 272 272 274 281 279 277 289 295 291 292 297 297 296 299 308 313 309 304 297 295 301 306 309 318 326 328 325
230 235 241 244 242 239 250 266 268 266 272 278 280 277 272 271 270 274 280 275 272 284 291 290 295 299 295 291 295 307 317 313 306 301 297 300 305 310 321 332 335 331
234 242 243 241 240 241 252 263 263 268 278 280 279 275 272 276 277 275 278 279 278 283 289 292 295 293 289 293 301 312 318 313 306 300 295 297 304 312 320 324 325 329
243 245 242 241 241 241 251 262 267 276 283 280 274 271 273 284 285 279 278 281 279 281 289 292 286 278 286 307 320 319 311 307 303 296 294 298 303 310 316 317 316 319
Height
1552 1552 1552 1553 1553 1553 1553 1552 1552 1552 1552 1552 1551 1551 1551 1550 1549 1549 1548 1548 1547 1546 1545 1545 1544 1543 1543 1542 1541 1540 1540 1539 1539 1539 1538 1538 1537 1536 1535 1534 1532 1531
1549 1550 1550 1551 1551 1551 1551 1551 1551 1550 1550 1550 1550 1550 1549 1549 1549 1548 1547 1546 1546 1545 1544 1544 1543 1542 1542 1541 1540 1539 1538 1538 1538 1538 1537 1537 1536 1535 1534 1533 1531 1530
1547 1548 1548 1549 1549 1550 1550 1549 1549 1549 1549 1549 1548 1548 1548 1548 1548 1547 1546 1545 1544 1544 1543 1542 1542 1541 1540 1539 1539 1538 1537 1537 1536 1536 1536 1535 1535 1534 1533 1532 1531 1529
1545 1546 1546 1547 1547 1548 1548 1548 1548 1547 1547 1547 1547 1547 1547 1547 1546 1546 1545 1544 1543 1543 1542 1541 1541 1540 1539 1538 1537 1537 1536 1536 1536 1535 1534 1534 1533 1532 1531 1531 1529 1529
1544 1544 1544 1545 1545 1546 1546 1546 1547 1546 1546 1546 1545 1545 1545 1545 1545 1544 1544 1543 1542 1542 1541 1540 1539 1539 1538 1537 1536 1536 1535 1535 1535 1534 1533 1532 1532 1530 1529 1528 1527 1526
1543 1543 1543 1543 1543 1544 1544 1545 1545 1545 1545 1545 1544 1543 1543 1543 1542 1542 1542 1542 1541 1540 1539 1539 1538 1537 1537 1536 1535 1535 1534 1533 1533 1532 1532 1531 1530 1529 1527 1526 1525 1524
1542 1542 1542 1542 1542 1542 1543 1543 1544 1544 1544 1543 1542 1542 1541 1541 1541 1540 1540 1540 1539 1539 1538 1537 1537 1536 1536 1535 1534 1534 1533 1532 1531 1531 1530 1529 1528 1526 1525 1523 1522 1521
1540 1541 1541 1541 1541 1542 1542 1543 1543 1543 1542 1541 1541 1540 1540 1539 1539 1539 1539 1538 1538 1537 1536 1536 1535 1535 1534 1533 1533 1532 1531 1531 1530 1529 1528 1528 1527 1525 1522 1521 1520 1518
1538 1539 1540 1540 1540 1541 1541 1542 1542 1541 1541 1540 1539 1539 1539 1539 1538 1538 1537 1537 1536 1536 1535 1534 1533 1532 1532 1531 1530 1529 1529 1528 1528 1527 1527 1526 1525 1523 1521 1519 1517 1516
1536 1537 1538 1538 1539 1540 1540 1541 1541 1540 1540 1539 1539 1538 1538 1537 1537 1536 1536 1535 1535 1534 1534 1533 1532 1531 1530 1529 1528 1527 1527 1526 1525 1525 1524 1523 1522 1521 1519 1517 1515 1514
1534 1535 1536 1537 1538 1539 1539 1540 1540 1539 1539 1538 1537 1537 1536 1535 1535 1535 1535 1534 1534 1533 1533 1532 1530 1529 1528 1527 1526 1526 1525 1524 1523 1522 1521 1520 1520 1519 1517 1515 1513 1512
1532 1533 1534 1536 1537 1538 1538 1538 1538 1537 1537 1537 1536 1535 1534 1534 1534 1533 1533 1532 1532 1532 1531 1530 1529 1527 1526 1524 1523 1523 1522 1522 1521 1520 1519 1519 1518 1517 1515 1514 1512 1511
1529 1531 1533 1535 1536 1536 1536 1536 1536 1536 1535 1534 1533 1533 1532 1532 1532 1532 1531 1531 1530 1529 1529 1528 1527 1525 1524 1522 1520 1520 1520 1520 1519 1519 1518 1517 1516 1515 1514 1512 1511 1509
1528 1530 1531 1533 1534 1534 1535 1534 1534 1533 1532 1531 1531 1530 1530 1530 1530 1530 1529 1528 1528 1527 1526 1525 1524 1523 1522 1521 1519 1519 1519 1518 1517 1517 1516 1515 1514 1513 1512 1511 1509 1508
1527 1529 1531 1532 1533 1533 1533 1532 1531 1531 1529 1529 1528 1528 1528 1528 1528 1528 1527 1526 1525 1524 1524 1524 1523 1521 1520 1520 1519 1518 1518 1516 1515 1515 1514 1513 1512 1510 1509 1508 1507 1505
1526 1529 1530 1531 1531 1531 1531 1529 1529 1528 1527 1526 1526 1525 1525 1525 1525 1525 1524 1524 1523 1523 1523 1522 1520 1518 1518 1518 1517 1516 1516 1515 1514 1513 1512 1511 1510 1507 1506 1505 1503 1502
1525 1528 1529 1529 1529 1528 1528 1527 1526 1525 1524 1524 1524 1524 1524 1524 1524 1523 1522 1521 1521 1521 1521 1519 1518 1517 1516 1515 1515 1514 1514 1513 1512 1511 1510 1509 1507 1505 1504 1502 1500 1499
1524 1526 1527 1527 1526 1526 1525 1524 1523 1523 1523 1523 1523 1523 1523 1522 1522 1521 1520 1519 1518 1518 1517 1516 1516 1516 1515 1514 1513 1512 1512 1511 1510 1508 1507 1506 1504 1502 1501 1499 1497 1496
1523 1524 1524 1524 1523 1522 1522 1521 1521 1522 1522 1522 1522 1522 1521 1520 1520 1519 1517 1517 1516 1515 1514 1514 1514 1514 1513 1512 1512 1510 1509 1508 1506 1505 1503 1502 1501 1499 1498 1495 1494 1492
1521 1521 1521 1521 1519 1519 1518 1519 1520 1521 1521 1521 1521 1520 1520 1519 1518 1517 1516 1515 1514 1513 1513 1512 1512 1511 1511 1510 1509 1508 1506 1505 1503 1502 1500 1499 1498 1496 1495 1493 1491 1488
1518 1518 1518 1517 1516 1516 1516 1516 1518 1518 1519 1519 1519 1519 1518 1518 1517 1516 1514 1513 1512 1511 1511 1510 1509 1509 1508 1507 1506 1505 1504 1502 1501 1499 1497 1496 1495 1494 1493 1491 1488 1486
1515 1515 1514 1514 1513 1513 1513 1514 1515 1516 1516 1517 1516 1516 1516 1516 1515 1513 1512 1511 1511 1510 1508 1507 1506 1506 1505 1504 1504 1503 1501 1499 1498 1496 1495 1493 1492 1491 1490 1489 1486 1483
1511 1511 1510 1510 1510 1511 1511 1512 1513 1513 1513 1513 1513 1512 1512 1512 1512 1510 1510 1510 1509 1508 1506 1504 1504 1504 1503 1502 1502 1501 1499 1496 1495 1493 1492 1490 1489 1489 1488 1487 1485 1482
1507 1507 1507 1507 1507 1508 1509 1510 1510 1510 1509 1509 1509 1508 1509 1509 1509 1508 1508 1508 1507 1507 1505 1503 1502 1502 1501 1501 1500 1499 1497 1494 1492 1491 1490 1488 1487 1486 1486 1485 1484 1482
1504 1505 1504 1504 1505 1505 1507 1508 1508 1508 1507 1506 1506 1506 1506 1506 1506 1506 1506 1505 1505 1504 1504 1503 1502 1501 1501 1500 1499 1497 1495 1492 1491 1489 1488 1486 1485 1484 1483 1483 1482 1481
1502 1502 1502 1501 1502 1502 1504 1505 1506 1505 1505 1504 1504 1504 1504 1504 1504 1503 1503 1503 1503 1502 1502 1502 1501 1500 1501 1500 1497 1495 1493 1490 1489 1487 1486 1484 1483 1482 1481 1480 1480 1480